Flag for West Bank Weather past 2 weeks in Bethlehem, West Bank

Now
90 °F

Sunny.


Feels Like: 87 °F
Forecast: 69 / 82 °F
Wind: 12 mph from Northwest

Location: Ben Gurion International Airport

Current Time: May 24, 2015 at 5:07:19 PM

Latest Report: May 24, 2015 at 4:20 PM


Visibility: 10 mi

Pressure: 29.92 "Hg

Humidity: 27%

Dew point: 52 °F

Location of BethlehemLocation

Historic Weather in Bethlehem — Graph

°F

Bethlehem temperature yesterday

Maximum temperature yesterday: 81 °F (at 1:50 PM)
Minimum temperature yesterday: 68 °F (at 1:20 AM)
Average temperature yesterday: 73 °F

Past Weeks' High & Low Weather Summary

 TemperatureHumidityPressure
High106 °F (May 18, 4:50 PM)88% (May 11, 5:20 AM)30.18 "Hg (May 11, 5:20 AM)
Low59 °F (May 16, 4:50 AM)6% (May 18, 12:20 PM)29.62 "Hg (May 9, 5:50 PM)
Average75 °F57%29.90 "Hg
* Reported May 9 3:20 PM — May 24 3:50 PM, Bethlehem, Weather by CustomWeather, © 2015

Note: Actual official high and low records may vary slightly from our data, if they occured in-between our weather recording intervals... More about our weather records

Advertising

Bethlehem weather history for previous 24 hours

 ConditionsComfort  
Time TempWeatherWind HumidityBarometerVisibility
3:50 PM
Sun, May 24
90 °FSunny.13 mph27%29.89 "Hg10 mi
3:20 PM91 °FSunny.10 mph24%29.89 "Hg10 mi
2:50 PM90 °FSunny.12 mph27%29.89 "Hg10 mi
2:20 PM90 °FSunny.12 mph29%29.89 "Hg10 mi
1:50 PM93 °FSunny.5 mph24%29.92 "Hg10 mi
1:20 PM93 °FSunny.2 mph24%29.89 "Hg10 mi
12:50 PM90 °FSunny.3 mph27%29.92 "Hg10 mi
12:20 PM90 °FSunny.3 mph29%29.92 "Hg10 mi
11:50 AM88 °FSunny.3 mph31%29.95 "Hg10 mi
11:20 AM84 °FPassing clouds.6 mph35%29.95 "HgN/A
10:50 AM82 °FPassing clouds.7 mph37%29.95 "HgN/A
10:20 AM81 °FPassing clouds.7 mph37%29.95 "HgN/A
9:50 AM79 °FSunny.7 mph37%29.95 "Hg10 mi
9:20 AM79 °FSunny.6 mph39%29.95 "Hg10 mi
8:50 AM77 °FSunny.7 mph42%29.95 "Hg10 mi
8:20 AM73 °FSunny.6 mph47%29.95 "Hg10 mi
7:50 AM70 °FSunny.5 mph50%29.95 "Hg10 mi
7:20 AM68 °FSunny.8 mph53%29.92 "Hg10 mi
6:50 AM66 °FSunny.6 mph60%29.92 "Hg10 mi
6:20 AM63 °FClear.1 mph73%29.92 "Hg10 mi
5:50 AM63 °FPassing clouds.6 mph68%29.92 "HgN/A
5:20 AM64 °FClear.8 mph68%29.92 "Hg10 mi
4:50 AM64 °FClear.5 mph78%29.92 "Hg10 mi
4:20 AM66 °FClear.3 mph68%29.95 "Hg10 mi
3:50 AM66 °FClear.5 mph73%29.95 "Hg10 mi
3:20 AM66 °FClear.5 mph73%29.95 "Hg10 mi
2:50 AM66 °FClear.5 mph73%29.95 "Hg10 mi
2:20 AM66 °FClear.5 mph73%29.95 "Hg10 mi
1:50 AM68 °FClear.5 mph73%29.95 "Hg10 mi
1:20 AM68 °FClear.5 mph73%29.95 "Hg10 mi
12:50 AM68 °FClear.6 mph73%29.95 "Hg10 mi
12:20 AM68 °FClear.2 mph83%29.95 "Hg10 mi
11:50 PM
Sat, May 23
68 °FClear.3 mph83%29.95 "Hg10 mi
11:20 PM68 °FClear.3 mph83%29.95 "Hg10 mi
10:50 PM70 °FClear.3 mph78%29.95 "Hg10 mi
10:20 PM70 °FClear.3 mph78%29.95 "Hg10 mi
9:50 PM72 °FClear.3 mph73%29.95 "Hg10 mi
9:20 PM72 °FClear.1 mph73%29.92 "Hg10 mi
8:50 PM73 °FClear.2 mph69%29.92 "Hg10 mi
8:20 PM73 °FSunny.2 mph69%29.92 "Hg10 mi
7:50 PM73 °FSunny.3 mph69%29.92 "Hg10 mi
7:20 PM73 °FSunny.5 mph74%29.92 "Hg10 mi
6:50 PM75 °FSunny.9 mph65%29.92 "Hg10 mi
6:20 PM77 °FSunny.10 mph61%29.92 "Hg10 mi
5:50 PM79 °FSunny.10 mph51%29.92 "Hg10 mi
5:20 PM79 °FSunny.7 mph51%29.92 "Hg10 mi
Weather by CustomWeather, © 2015

See weather overviewHow to use our weather pages